User: anonymous   Login
Location: Kawakawa
(35.3830°S, 174.0670°E)
Time: 20:25:58
(UTC+13:00)
Language:

Cosmos 1805 Rocket - Orbit

View from above orbital plane
View from above orbital plane
View from above satellite
View from above satellite

Ground track
Ground track

The orbit data is extracted from the following two-line orbital elements,

1 17192U 86097B   19079.79984641  .00000058  00000-0  41475-5 0  9993
2 17192  82.5094  14.2831 0017867 142.3113 247.9450 14.83571360743804
Epoch (UTC): 20 March 2019 19:11:46
Eccentricity: 0.0017867
inclination: 82.5094°
perigee height: 605 km
apogee height: 630 km
right ascension of ascending node: 14.2831°
argument of perigee: 142.3113°
revolutions per day: 14.83571360
mean anomaly at epoch: 247.9450°
orbit number at epoch: 74380

The dashed part of the orbit path shows where the satellite is in the earth's shadow,  

DLR